#timestamp,LO_Frequency,Hit,StdDev 
1456480815.9,286046999.4,N
1456480835.7,286046998.1,N
1456480855.5,286046995.4,N
1456480875.4,286046996.2,N
1456480895.2,286046995.0,N
1456480915.0,286046994.0,N
1456480915.9,286046994.0,N
1456480935.8,286046994.1,N
1456480955.6,286046996.0,N
1456480975.4,286046996.2,N
1456480995.3,286046994.6,N
1456481015.1,286046992.2,N
1456481016.0,286046992.2,N
1456481035.8,286046996.4,N
1456481055.6,286046996.1,N
1456481075.5,286046994.3,N
1456481095.3,286046996.0,N
1456481115.2,286046999.0,N
1456481135.9,286047000.1,N
1456481155.7,286046998.2,N
1456481175.6,286046999.7,N
1456481195.4,286047000.0,N
1456481215.2,286047001.7,N
1456481235.0,286047003.7,N
1456481235.9,286047003.7,N
1456481255.8,286047002.8,N
1456481275.6,286047002.1,N
1456481295.4,286047004.0,N
1456481315.3,286047001.5,N
1456481335.1,286047003.0,N
1456481355.8,286047003.1,N
1456481375.7,286047008.5,N
1456481395.5,286047009.8,N
1456481415.3,286047012.9,N
1456481435.2,286047014.5,N
1456481455.9,286047011.5,N
1456481475.7,286047011.6,N
1456481495.6,286047013.9,N
1456481515.4,286047011.0,N
1456481535.2,286047011.5,N
1456481555.0,286047009.5,N
1456481556.0,286047009.5,N
1456481575.8,286047007.7,N
1456481595.6,286047008.5,N
1456481615.4,286047005.6,N
1456481635.3,286047004.6,N
1456481655.1,286047005.2,N
1456481675.8,286047003.5,N
1456481695.7,286047002.6,N
1456481715.5,286046998.1,N
1456481735.3,286046997.2,N
1456481755.2,286046995.9,N
1456481775.9,286046995.7,N
1456481795.7,286046996.7,N
1456481815.6,286046998.7,N
1456481835.4,286047001.2,N
1456481855.2,286046997.0,N
1456481875.1,286046996.7,N
1456481876.0,286046996.7,N
1456481895.8,286046998.9,N
1456481915.6,286046994.9,N
1456481935.5,286046992.0,N
1456481955.3,286046992.5,N
1456481975.1,286046992.6,N
1456481995.8,286046990.6,N
1456482015.7,286046994.1,N
1456482035.5,286046989.8,N
1456482055.3,286046989.9,N
1456482075.2,286046989.2,N
1456482095.9,286046990.7,N
1456482115.7,286046992.3,N
1456482135.6,286046992.1,N
1456482155.4,286046994.5,N
1456482175.2,286046993.3,N
1456482195.1,286046994.7,N
1456482196.0,286046994.7,N
1456482215.8,286046994.2,N
1456482235.6,286046994.5,N
1456482255.5,286046992.3,N
1456482275.3,286046997.5,N
1456482295.1,286047001.5,N
1456482315.9,286047003.7,N
1456482335.7,286047003.0,N
1456482355.5,286047001.3,N
1456482375.3,286047001.3,N
1456482395.2,286047003.9,N
1456482415.0,286047003.4,N
1456482415.9,286047003.4,N
1456482435.7,286047004.1,N
1456482455.6,286047003.8,N
1456482475.4,286047001.4,N
1456482495.2,286047000.1,N
1456482515.1,286047000.6,N
1456482516.0,286047000.6,N
1456482535.8,286047002.5,N
1456482555.6,286047001.2,N
1456482575.5,286047001.2,N
1456482595.3,286046996.5,N
1456482615.1,286046998.7,N
1456482635.9,286047000.8,N
1456482655.7,286046995.6,N
1456482675.5,286046993.8,N
1456482695.4,286046995.7,N
1456482715.2,286046996.5,N
1456482735.0,286046995.2,N
1456482735.9,286046995.2,N
1456482755.7,286046994.9,N
1456482775.6,286046995.2,N
1456482795.4,286046993.5,N
1456482815.2,286046996.3,N
1456482835.1,286046996.1,N
1456482836.0,286046996.1,N
1456482855.8,286046996.8,N
1456482875.6,286046997.4,N
1456482895.5,286046997.9,N
1456482915.3,286046998.9,N
1456482935.1,286046997.5,N
1456482955.9,286046999.6,N
1456482975.7,286047000.8,N
1456482995.5,286047002.2,N
1456483015.4,286047004.5,N
1456483035.2,286047006.4,N
1456483055.0,286047008.1,N
1456483055.9,286047008.1,N
1456483075.8,286047007.7,N
1456483095.6,286047011.2,N
1456483115.4,286047011.5,N
1456483135.2,286047015.2,N
1456483155.1,286047013.3,N
1456483156.0,286047013.3,N
1456483175.8,286047010.9,N
1456483195.6,286047012.1,N
1456483215.5,286047008.8,N
1456483235.3,286047008.5,N
1456483255.1,286047007.9,N
1456483275.9,286047012.9,N
1456483295.7,286047016.6,N
1456483315.5,286047016.6,N
1456483335.4,286047013.8,N
1456483355.2,286047011.1,N
1456483375.0,286047016.0,N
1456483375.9,286047016.0,N
1456483395.8,286047016.5,N
1456483415.6,286047017.1,N
1456483435.4,286047013.1,N
1456483455.3,286047011.8,N
1456483475.1,286047012.2,N
1456483476.0,286047012.2,N
1456483495.8,286047015.5,Y
1456483515.7,286047003.5,P
1456483535.5,286047004.0,N
1456483555.3,286046998.5,N
1456483575.2,286046998.9,N
1456483595.9,286047000.2,N
1456483615.7,286047001.4,N
1456483635.5,286047007.5,N
1456483655.4,286047006.5,N
1456483675.2,286047005.7,N
1456483695.0,286047004.7,N
1456483695.9,286047004.7,N
1456483715.8,286047002.9,N
1456483735.6,286047002.6,N
1456483755.4,286047007.2,N
1456483775.3,286047010.7,Y
1456483795.1,286047006.0,P
1456483815.8,286047003.6,P
1456483835.7,286047002.5,N
1456483855.5,286047001.8,N
1456483875.3,286047005.0,Y
1456483895.2,286047001.6,P
1456483915.9,286047009.0,P
1456483935.7,286047006.6,N
1456483955.6,286047007.6,N
1456483975.4,286047003.6,N
1456483995.2,286047004.1,N
1456484015.1,286047003.5,N
1456484016.0,286047003.5,N
1456484035.8,286047008.3,Y
1456484055.6,286047002.2,P
1456484075.5,286046997.1,N
1456484095.3,286047002.6,N
1456484115.1,286046998.6,N
1456484135.9,286046996.6,N
1456484155.7,286046995.3,N
1456484175.5,286046993.3,N
1456484195.3,286046990.2,N
1456484215.2,286046989.6,N
1456484235.0,286046989.8,N
1456484235.9,286046989.8,N
1456484255.7,286046990.7,N
1456484275.6,286046994.3,N
1456484295.4,286046991.4,N
1456484315.2,286046990.3,N
1456484335.1,286046990.3,N
1456484336.0,286046990.3,N
1456484355.8,286046994.5,N
1456484375.6,286046996.4,N
1456484395.5,286046990.9,N
